Location: Unspecified
(0.0000°N, 0.0000°E)
Time: 04:27:09
(UTC+00:00)

CZ-4C DEB - Pass Details

Date: 19 March 2026
Orbit: 805 x 1381 km, 63.4° (Epoch: 15 April)

Event Time Altitude Azimuth Distance (km) Brightness Sun altitude
Rises 18:30:45 0° 336° (NNW) 4,224 ? -5.8°
Reaches altitude 10° 18:33:29 10° 336° (NNW) 3,313 ? -6.4°
Maximum altitude 18:41:44 87° 247° (WSW) 1,374 ? -8.5°
Drops below altitude 10° 18:50:20 10° 158° (SSE) 3,438 ? -10.7°
Sets 18:53:12 0° 158° (SSE) 4,389 ? -11.4°
